Grand Rapids, MN

1:12 PM CST on November 14, 2019 (GMT -0600)
Grand Rapids-Itasca County-Newstrom Field

Weather History for KGPZ - October, 2019

Change the Weather History Date:

Wednesday, October 23, 2019

  Actual Average Record
Temperature  
Mean Temperature 37 °F -  
Max Temperature 41 °F 52 °F 79 °F (1963)
Min Temperature 33 °F 30 °F -10 °F (1917)
Degree Days  
Heating Degree Days 28    
Moisture  
Dew Point 31 °F    
Average Humidity 81    
Maximum Humidity 89    
Minimum Humidity 70    
Precipitation  
Precipitation 0.00 in - - ()
Sea Level Pressure  
Sea Level Pressure 29.87 in    
Wind  
Wind Speed 13 mph ()    
Max Wind Speed 18 mph    
Max Gust Speed 25 mph    
Visibility 9.8 miles    
Events Rain , Snow    
Averages and records for this station are not official NWS values.
T = Trace of Precipitation, MM = Missing Value Source: Averaged Metar Reports

Daily Weather History Graph

Daily Weather History Graph

Search for Another Location

Airport or City:

Astronomy

Oct. 23, 2019 Rise Set
Actual Time 7:43 AM CDT 6:12 PM CDT
Civil Twilight 7:12 AM CDT 6:43 PM CDT
Nautical Twilight 6:36 AM CDT 7:19 PM CDT
Astronomical Twilight 6:01 AM CDT 7:54 PM CDT
Moon 1:33 AM CDT (10/23) 4:29 PM CDT (10/23)
Length of Visible Light 11h 31m
Length of Day
10h 28m
Waning Crescent, 26% of the Moon is Illuminated
Oct 23
Waning Crescent
Oct 27
New
Nov 4
First Quarter
Nov 12
Full
Nov 19
Last Quarter

Hourly Weather History & Observations

Time (CDT) Temp. Windchill Dew Point Humidity Pressure Visibility Wind Dir Wind Speed Gust Speed Precip Events Conditions
12:50 AM 35.6 °F 25.9 °F 30.2 °F 81% 29.60 in 10.0 mi NW 16.1 mph 25.3 mph N/A   Overcast
12:56 AM 36.0 °F 25.6 °F 30.9 °F 82% 29.65 in 10.0 mi NW 18.4 mph 25.3 mph N/A   Overcast
1:56 AM 35.1 °F 25.9 °F 30.9 °F 85% 29.66 in 10.0 mi NW 13.8 mph 21.9 mph N/A   Overcast
2:56 AM 35.1 °F 25.5 °F 30.9 °F 85% 29.68 in 10.0 mi WNW 15.0 mph 21.9 mph N/A   Overcast
3:56 AM 34.0 °F 23.8 °F 30.0 °F 85% 29.70 in 9.0 mi NW 16.1 mph 25.3 mph 0.00 in Snow Light Snow
4:56 AM 35.1 °F 25.9 °F 30.9 °F 85% 29.73 in 10.0 mi WNW 13.8 mph 24.2 mph 0.00 in Rain Light Rain
5:34 AM 33.8 °F 24.3 °F 30.2 °F 87% 29.70 in 10.0 mi NW 13.8 mph - 0.00 in   Mostly Cloudy
5:56 AM 34.0 °F 23.4 °F 30.9 °F 89% 29.75 in 10.0 mi NW 17.3 mph 21.9 mph 0.00 in Rain Light Rain
6:08 AM 33.8 °F 25.3 °F 30.2 °F 87% 29.71 in 10.0 mi NW 11.5 mph - 0.00 in Rain Light Rain
6:50 AM 33.8 °F 24.3 °F 30.2 °F 87% 29.73 in 10.0 mi NW 13.8 mph 23.0 mph 0.00 in   Overcast
6:56 AM 34.0 °F 24.6 °F 30.0 °F 85% 29.78 in 10.0 mi NW 13.8 mph - 0.00 in   Overcast
7:48 AM 35.6 °F 26.2 °F 30.2 °F 81% 29.74 in 8.0 mi NW 15.0 mph - 0.00 in Snow Light Snow
7:56 AM 34.0 °F 24.6 °F 30.0 °F 85% 29.80 in 7.0 mi NW 13.8 mph 23.0 mph 0.00 in Snow Light Snow
8:32 AM 35.6 °F 27.1 °F 30.2 °F 81% 29.76 in 10.0 mi WNW 12.7 mph - 0.00 in   Overcast
8:50 AM 35.6 °F 25.2 °F 30.2 °F 81% 29.77 in 10.0 mi WNW 18.4 mph 24.2 mph 0.00 in   Mostly Cloudy
8:56 AM 35.1 °F 25.2 °F 30.0 °F 82% 29.83 in 10.0 mi WNW 16.1 mph - 0.00 in   Overcast
9:16 AM 35.6 °F 25.5 °F 30.2 °F 81% 29.79 in 10.0 mi WNW 17.3 mph 24.2 mph N/A   Overcast
9:56 AM 36.0 °F 26.3 °F 28.9 °F 76% 29.85 in 10.0 mi NW 16.1 mph 23.0 mph N/A   Overcast
10:56 AM 36.0 °F 26.3 °F 30.0 °F 79% 29.87 in 10.0 mi NNW 16.1 mph 24.2 mph 0.00 in Rain Light Rain
11:56 AM 37.0 °F 28.5 °F 32.0 °F 82% 29.90 in 10.0 mi NW 13.8 mph 21.9 mph 0.00 in Rain Light Rain
12:56 PM 39.0 °F 30.6 °F 30.9 °F 73% 29.91 in 10.0 mi NW 15.0 mph 19.6 mph 0.00 in   Overcast
1:56 PM 41.0 °F 34.3 °F 32.0 °F 70% 29.92 in 10.0 mi NW 11.5 mph 18.4 mph N/A   Overcast
2:50 PM 39.2 °F 32.5 °F 33.8 °F 81% 29.89 in 10.0 mi WNW 10.4 mph - 0.00 in Rain Light Rain
2:56 PM 39.9 °F 32.9 °F 33.1 °F 77% 29.94 in 10.0 mi WNW 11.5 mph - 0.00 in   Overcast
3:22 PM 41.0 °F 33.9 °F 33.8 °F 76% 29.90 in 10.0 mi WNW 12.7 mph - 0.00 in Rain Light Rain
3:41 PM 39.2 °F 30.8 °F 33.8 °F 81% 29.91 in 10.0 mi NW 15.0 mph - 0.00 in Rain Light Rain
3:56 PM 39.9 °F 31.8 °F 33.1 °F 77% 29.97 in 10.0 mi NW 15.0 mph - 0.00 in Rain Light Rain
4:56 PM 37.9 °F 30.9 °F 33.1 °F 83% 30.00 in 10.0 mi WNW 10.4 mph - 0.00 in Rain Light Rain
5:56 PM 37.0 °F 28.9 °F 33.1 °F 86% 30.03 in 10.0 mi NW 12.7 mph 20.7 mph 0.00 in Rain Light Rain
6:56 PM 36.0 °F 26.7 °F 32.0 °F 86% 30.06 in 10.0 mi NW 15.0 mph - 0.00 in   Overcast
7:56 PM 37.0 °F 27.4 °F 30.9 °F 79% 30.09 in 10.0 mi NW 17.3 mph 24.2 mph 0.00 in   Overcast
8:56 PM 36.0 °F 27.5 °F 30.0 °F 79% 30.11 in 10.0 mi NW 12.7 mph 21.9 mph 0.00 in Rain Light Rain
9:56 PM 36.0 °F 26.3 °F 28.9 °F 76% 30.13 in 10.0 mi NNW 16.1 mph 21.9 mph 0.00 in   Overcast
10:56 PM 36.0 °F 26.3 °F 28.0 °F 73% 30.14 in 10.0 mi NW 16.1 mph 21.9 mph N/A   Overcast
11:14 PM 35.6 °F 27.5 °F 28.4 °F 75% 30.09 in 10.0 mi WNW 11.5 mph - N/A   Overcast
11:56 PM 35.1 °F 27.9 °F 28.9 °F 78% 30.15 in 10.0 mi NW 9.2 mph - N/A   Overcast